| time (UTC) | temp C | wind direction | speed KPH | gust KPH | rain 1hr cm | rain 24hr cm | rain mn cm | humidity % | barometer mb |
| 20260504214038 | 20 | 0 | 1.6 | 8.0 | 0.00 | 0.00 | 0.00 | 35 | 1007.5 |
| 20260504213538 | 20 | 241 | 1.6 | 14.5 | 0.00 | 0.00 | 0.00 | 36 | 1007.4 |
| 20260504213103 | 20 | 95 | 1.6 | 14.5 | 0.00 | 0.00 | 0.00 | 35 | 1007.4 |
| 20260504212539 | 20 | 309 | 3.2 | 9.7 | 0.00 | 0.00 | 0.00 | 36 | 1007.4 |
| 20260504212044 | 20 | 337 | 1.6 | 8.0 | 0.00 | 0.00 | 0.00 | 35 | 1007.5 |
| 20260504211551 | 20 | 217 | 3.2 | 8.0 | 0.00 | 0.00 | 0.00 | 35 | 1007.4 |
| 20260504211039 | 20 | 294 | 1.6 | 9.7 | 0.00 | 0.00 | 0.00 | 35 | 1007.4 |
| 20260504210540 | 20 | 263 | 3.2 | 9.7 | 0.00 | 0.00 | 0.00 | 36 | 1007.5 |
| 20260504210051 | 20 | 234 | 1.6 | 12.9 | 0.00 | 0.00 | 0.00 | 36 | 1007.5 |
| 20260504205542 | 20 | 266 | 3.2 | 12.9 | 0.00 | 0.00 | 0.00 | 36 | 1007.5 |
| 20260504205040 | 20 | 219 | 3.2 | 12.9 | 0.00 | 0.00 | 0.00 | 35 | 1007.5 |
| 20260504204556 | 20 | 250 | 4.8 | 12.9 | 0.00 | 0.00 | 0.00 | 35 | 1007.6 |
| 20260504204040 | 20 | 269 | 3.2 | 12.9 | 0.00 | 0.00 | 0.00 | 35 | 1007.6 |
| 20260504203540 | 20 | 313 | 3.2 | 14.5 | 0.00 | 0.00 | 0.00 | 36 | 1007.5 |
| 20260504203052 | 20 | 177 | 4.8 | 14.5 | 0.00 | 0.00 | 0.00 | 35 | 1007.6 |
| 20260504202540 | 20 | 243 | 3.2 | 14.5 | 0.00 | 0.00 | 0.00 | 35 | 1007.7 |
| 20260504202039 | 21 | 0 | 3.2 | 14.5 | 0.00 | 0.00 | 0.00 | 34 | 1007.6 |
| 20260504201554 | 21 | 0 | 1.6 | 16.1 | 0.00 | 0.00 | 0.00 | 34 | 1007.6 |
| 20260504201043 | 21 | 184 | 3.2 | 16.1 | 0.00 | 0.00 | 0.00 | 33 | 1007.6 |
| 20260504200540 | 21 | 191 | 3.2 | 14.5 | 0.00 | 0.00 | 0.00 | 34 | 1007.7 |
| 20260504200052 | 21 | 238 | 4.8 | 14.5 | 0.00 | 0.00 | 0.00 | 34 | 1007.7 |
| 20260504195540 | 20 | 0 | 6.4 | 12.9 | 0.00 | 0.00 | 0.00 | 33 | 1007.6 |
| 20260504195040 | 21 | 254 | 3.2 | 12.9 | 0.00 | 0.00 | 0.00 | 33 | 1007.7 |
| 20260504194556 | 21 | 284 | 4.8 | 12.9 | 0.00 | 0.00 | 0.00 | 34 | 1007.9 |
| 20260504194040 | 21 | 192 | 4.8 | 12.9 | 0.00 | 0.00 | 0.00 | 33 | 1007.7 |
| 20260504193542 | 20 | 244 | 4.8 | 14.5 | 0.00 | 0.00 | 0.00 | 35 | 1007.8 |
| 20260504193045 | 21 | 331 | 3.2 | 14.5 | 0.00 | 0.00 | 0.00 | 34 | 1007.9 |
| 20260504192540 | 21 | 262 | 3.2 | 14.5 | 0.00 | 0.00 | 0.00 | 33 | 1007.7 |
| 20260504192044 | 21 | 209 | 3.2 | 11.3 | 0.00 | 0.00 | 0.00 | 32 | 1007.8 |
| 20260504191550 | 21 | 223 | 3.2 | 11.3 | 0.00 | 0.00 | 0.00 | 33 | 1007.7 |
| 20260504191041 | 21 | 260 | 3.2 | 9.7 | 0.00 | 0.00 | 0.00 | 33 | 1007.8 |
| 20260504190541 | 20 | 258 | 3.2 | 11.3 | 0.00 | 0.00 | 0.00 | 34 | 1007.9 |
| 20260504190053 | 20 | 309 | 1.6 | 11.3 | 0.00 | 0.00 | 0.00 | 33 | 1007.7 |
| 20260504185540 | 20 | 218 | 3.2 | 16.1 | 0.00 | 0.00 | 0.00 | 34 | 1007.8 |
| 20260504185040 | 20 | 327 | 1.6 | 16.1 | 0.00 | 0.00 | 0.00 | 33 | 1007.9 |
| 20260504184550 | 20 | 225 | 6.4 | 16.1 | 0.00 | 0.00 | 0.00 | 32 | 1007.9 |
| 20260504184041 | 20 | 259 | 3.2 | 16.1 | 0.00 | 0.00 | 0.00 | 35 | 1008.2 |
| 20260504183540 | 20 | 182 | 4.8 | 12.9 | 0.00 | 0.00 | 0.00 | 31 | 1008.2 |
| 20260504183053 | 20 | 198 | 4.8 | 16.1 | 0.00 | 0.00 | 0.00 | 32 | 1008.1 |
| 20260504182540 | 20 | 302 | 4.8 | 16.1 | 0.00 | 0.00 | 0.00 | 33 | 1008.1 |
| 20260504182040 | 20 | 297 | 1.6 | 14.5 | 0.00 | 0.00 | 0.00 | 32 | 1008.3 |
| 20260504181552 | 20 | 297 | 4.8 | 16.1 | 0.00 | 0.00 | 0.00 | 32 | 1008.3 |
| 20260504181040 | 20 | 225 | 4.8 | 16.1 | 0.00 | 0.00 | 0.00 | 32 | 1008.3 |
| 20260504180540 | 20 | 271 | 6.4 | 14.5 | 0.00 | 0.00 | 0.00 | 32 | 1008.3 |
| 20260504180052 | 20 | 246 | 3.2 | 12.9 | 0.00 | 0.00 | 0.00 | 33 | 1008.4 |
| 20260504175540 | 20 | 202 | 4.8 | 14.5 | 0.00 | 0.00 | 0.00 | 32 | 1008.3 |
| 20260504175041 | 20 | 284 | 4.8 | 14.5 | 0.00 | 0.00 | 0.00 | 32 | 1008.2 |
| 20260504174554 | 20 | 217 | 6.4 | 12.9 | 0.00 | 0.00 | 0.00 | 31 | 1008.3 |
| 20260504174041 | 20 | 248 | 6.4 | 12.9 | 0.00 | 0.00 | 0.00 | 32 | 1008.3 |
| 20260504173540 | 20 | 203 | 3.2 | 12.9 | 0.00 | 0.00 | 0.00 | 32 | 1008.3 |
| 20260504173052 | 20 | 330 | 3.2 | 12.9 | 0.00 | 0.00 | 0.00 | 33 | 1008.7 |
| 20260504172539 | 20 | 0 | 3.2 | 12.9 | 0.00 | 0.00 | 0.00 | 33 | 1008.5 |
| 20260504172039 | 19 | 259 | 4.8 | 14.5 | 0.00 | 0.00 | 0.00 | 35 | 1008.5 |
| 20260504171558 | 20 | 299 | 6.4 | 14.5 | 0.00 | 0.00 | 0.00 | 33 | 1008.6 |
| 20260504171040 | 20 | 231 | 3.2 | 14.5 | 0.00 | 0.00 | 0.00 | 33 | 1008.8 |
| 20260504170542 | 20 | 246 | 6.4 | 14.5 | 0.00 | 0.00 | 0.00 | 33 | 1008.9 |
| 20260504151039 | 17 | 194 | 3.2 | 14.5 | 0.00 | 0.00 | 0.00 | 41 | 1009.6 |
| 20260504150539 | 17 | 247 | 6.4 | 14.5 | 0.00 | 0.00 | 0.00 | 41 | 1010.0 |
| 20260504150108 | 16 | 252 | 3.2 | 17.7 | 0.00 | 0.00 | 0.00 | 41 | 1010.1 |
| 20260504141039 | 16 | 277 | 3.2 | 11.3 | 0.00 | 0.00 | 0.00 | 44 | 1010.3 |
| 20260504140539 | 16 | 230 | 3.2 | 9.7 | 0.00 | 0.00 | 0.00 | 42 | 1010.0 |
| 20260504130540 | 13 | 225 | 3.2 | 9.7 | 0.00 | 0.00 | 0.00 | 49 | 1010.6 |
| 20260504110542 | 3 | 0 | 0.0 | 0.0 | 0.00 | 0.00 | 0.00 | 85 | 1011.1 |
| 20260504100540 | 2 | 0 | 0.0 | 0.0 | 0.00 | 0.00 | 0.00 | 81 | 1011.1 |
| 20260504081552 | 4 | 0 | 0.0 | 0.0 | 0.00 | 0.00 | 0.00 | 81 | 1010.9 |
| 20260504081039 | 4 | 0 | 0.0 | 0.0 | 0.00 | 0.00 | 0.00 | 82 | 1010.8 |
| 20260504080538 | 4 | 0 | 0.0 | 0.0 | 0.00 | 0.00 | 0.00 | 82 | 1010.8 |
| 20260504080109 | 4 | 0 | 0.0 | 0.0 | 0.00 | 0.00 | 0.00 | 82 | 1010.8 |
| 20260504050542 | 3 | 0 | 0.0 | 0.0 | 0.00 | 0.00 | 0.00 | 78 | 1010.9 |
| 20260504045541 | 3 | 0 | 0.0 | 0.0 | 0.00 | 0.00 | 0.00 | 79 | 1010.9 |
| 20260504045041 | 3 | 0 | 0.0 | 0.0 | 0.00 | 0.00 | 0.00 | 79 | 1010.9 |
| 20260504044548 | 3 | 0 | 0.0 | 0.0 | 0.00 | 0.00 | 0.00 | 79 | 1010.9 |
| 20260504044041 | 3 | 0 | 0.0 | 0.0 | 0.00 | 0.00 | 0.00 | 78 | 1011.0 |
| 20260504043541 | 3 | 0 | 0.0 | 0.0 | 0.00 | 0.00 | 0.00 | 78 | 1011.1 |
| 20260504043051 | 2 | 0 | 0.0 | 0.0 | 0.00 | 0.00 | 0.00 | 79 | 1011.2 |
| 20260504042541 | 2 | 0 | 0.0 | 0.0 | 0.00 | 0.00 | 0.00 | 78 | 1011.1 |
| 20260504042042 | 2 | 0 | 0.0 | 0.0 | 0.00 | 0.00 | 0.00 | 78 | 1011.2 |
| 20260504041549 | 2 | 0 | 0.0 | 1.6 | 0.00 | 0.00 | 0.00 | 77 | 1011.1 |
| 20260504041041 | 2 | 0 | 0.0 | 3.2 | 0.00 | 0.00 | 0.00 | 79 | 1011.1 |
| 20260504040546 | 1 | 0 | 0.0 | 3.2 | 0.00 | 0.00 | 0.00 | 77 | 1010.9 |
| 20260504040110 | 1 | 0 | 0.0 | 3.2 | 0.00 | 0.00 | 0.00 | 78 | 1010.9 |
| 20260504035539 | 1 | 0 | 0.0 | 1.6 | 0.00 | 0.00 | 0.00 | 79 | 1010.7 |
| 20260504035041 | 1 | 0 | 0.0 | 1.6 | 0.00 | 0.00 | 0.00 | 78 | 1010.7 |
| 20260504034550 | 1 | 0 | 0.0 | 1.6 | 0.00 | 0.00 | 0.00 | 79 | 1010.7 |
| 20260504034038 | 1 | 0 | 0.0 | 0.0 | 0.00 | 0.00 | 0.00 | 79 | 1010.6 |
| 20260504033538 | 1 | 0 | 0.0 | 0.0 | 0.00 | 0.00 | 0.00 | 79 | 1010.6 |
| 20260504033050 | 1 | 0 | 0.0 | 0.0 | 0.00 | 0.00 | 0.00 | 80 | 1010.6 |
| 20260504032541 | 1 | 0 | 0.0 | 0.0 | 0.00 | 0.00 | 0.00 | 80 | 1010.6 |
| 20260504032038 | 1 | 0 | 0.0 | 0.0 | 0.00 | 0.00 | 0.00 | 81 | 1010.6 |
| 20260504031556 | 1 | 0 | 0.0 | 0.0 | 0.00 | 0.00 | 0.00 | 81 | 1010.6 |
| 20260504031041 | 1 | 0 | 0.0 | 0.0 | 0.00 | 0.00 | 0.00 | 81 | 1010.5 |
| 20260504030540 | 1 | 0 | 0.0 | 0.0 | 0.00 | 0.00 | 0.00 | 80 | 1010.5 |
| 20260504030050 | 1 | 0 | 0.0 | 0.0 | 0.00 | 0.00 | 0.00 | 80 | 1010.5 |
| 20260504025540 | 1 | 0 | 0.0 | 0.0 | 0.00 | 0.00 | 0.00 | 80 | 1010.6 |
| 20260504025045 | 1 | 0 | 0.0 | 0.0 | 0.00 | 0.00 | 0.00 | 80 | 1010.5 |
| 20260504024553 | 1 | 0 | 0.0 | 0.0 | 0.00 | 0.00 | 0.00 | 79 | 1010.5 |
| 20260504024042 | 1 | 0 | 0.0 | 0.0 | 0.00 | 0.00 | 0.00 | 79 | 1010.4 |
| 20260504023542 | 1 | 0 | 0.0 | 0.0 | 0.00 | 0.00 | 0.00 | 79 | 1010.4 |
| 20260504023100 | 1 | 0 | 0.0 | 0.0 | 0.00 | 0.00 | 0.00 | 79 | 1010.3 |
| 20260504022546 | 1 | 0 | 0.0 | 0.0 | 0.00 | 0.00 | 0.00 | 78 | 1010.4 |
| 20260504022042 | 1 | 0 | 0.0 | 0.0 | 0.00 | 0.00 | 0.00 | 78 | 1010.4 |
| 20260504021552 | 2 | 0 | 0.0 | 0.0 | 0.00 | 0.00 | 0.00 | 77 | 1010.4 |
| 20260504021041 | 2 | 0 | 0.0 | 0.0 | 0.00 | 0.00 | 0.00 | 77 | 1010.3 |
| 20260504020541 | 2 | 0 | 0.0 | 0.0 | 0.00 | 0.00 | 0.00 | 77 | 1010.3 |
| 20260504020048 | 2 | 0 | 0.0 | 0.0 | 0.00 | 0.00 | 0.00 | 77 | 1010.3 |
| 20260504015539 | 2 | 0 | 0.0 | 0.0 | 0.00 | 0.00 | 0.00 | 76 | 1010.2 |
| 20260504015044 | 2 | 0 | 0.0 | 0.0 | 0.00 | 0.00 | 0.00 | 75 | 1010.2 |
| 20260504014601 | 2 | 0 | 0.0 | 0.0 | 0.00 | 0.00 | 0.00 | 75 | 1010.2 |
| 20260504014038 | 2 | 0 | 0.0 | 0.0 | 0.00 | 0.00 | 0.00 | 75 | 1010.1 |
| 20260504013542 | 3 | 0 | 0.0 | 0.0 | 0.00 | 0.00 | 0.00 | 74 | 1010.1 |
| 20260504013052 | 3 | 0 | 0.0 | 0.0 | 0.00 | 0.00 | 0.00 | 73 | 1010.2 |
| 20260504012542 | 3 | 0 | 0.0 | 0.0 | 0.00 | 0.00 | 0.00 | 72 | 1010.1 |
| 20260504012043 | 3 | 0 | 0.0 | 0.0 | 0.00 | 0.00 | 0.00 | 72 | 1010.0 |
| 20260504011549 | 3 | 0 | 0.0 | 0.0 | 0.00 | 0.00 | 0.00 | 71 | 1010.0 |
| 20260504011041 | 3 | 0 | 0.0 | 0.0 | 0.00 | 0.00 | 0.00 | 70 | 1010.0 |
| 20260504010538 | 4 | 0 | 0.0 | 0.0 | 0.00 | 0.00 | 0.00 | 69 | 1009.9 |
| 20260504010053 | 4 | 0 | 0.0 | 0.0 | 0.00 | 0.00 | 0.00 | 68 | 1009.8 |
| 20260504005544 | 4 | 0 | 0.0 | 0.0 | 0.00 | 0.00 | 0.00 | 67 | 1009.6 |
| 20260504005039 | 5 | 0 | 0.0 | 0.0 | 0.00 | 0.00 | 0.00 | 65 | 1009.6 |
| 20260504004553 | 5 | 0 | 0.0 | 0.0 | 0.00 | 0.00 | 0.00 | 65 | 1009.5 |
| 20260504004038 | 5 | 0 | 0.0 | 0.0 | 0.00 | 0.00 | 0.00 | 65 | 1009.5 |
| 20260504003538 | 5 | 0 | 0.0 | 0.0 | 0.00 | 0.00 | 0.00 | 64 | 1009.5 |
| 20260504003055 | 6 | 0 | 0.0 | 0.0 | 0.00 | 0.00 | 0.00 | 60 | 1009.5 |
| 20260504002538 | 6 | 0 | 0.0 | 0.0 | 0.00 | 0.00 | 0.00 | 60 | 1009.3 |
| 20260504002039 | 6 | 0 | 0.0 | 0.0 | 0.00 | 0.00 | 0.00 | 60 | 1009.3 |
| 20260504001604 | 6 | 0 | 0.0 | 0.0 | 0.00 | 0.00 | 0.00 | 59 | 1009.3 |
| 20260504001039 | 7 | 0 | 0.0 | 0.0 | 0.00 | 0.00 | 0.00 | 55 | 1009.2 |
| 20260504000539 | 7 | 0 | 0.0 | 0.0 | 0.00 | 0.00 | 0.00 | 53 | 1009.2 |
| 20260504000106 | 7 | 0 | 0.0 | 0.0 | 0.00 | 0.00 | 0.00 | 53 | 1009.1 |
| 20260503235538 | 7 | 0 | 0.0 | 0.0 | 0.00 | 0.00 | 0.00 | 52 | 1009.0 |
| 20260503235045 | 8 | 0 | 0.0 | 1.6 | 0.00 | 0.00 | 0.00 | 51 | 1009.0 |
| 20260503234549 | 8 | 0 | 0.0 | 3.2 | 0.00 | 0.00 | 0.00 | 52 | 1009.0 |
| 20260503234039 | 8 | 0 | 0.0 | 4.8 | 0.00 | 0.00 | 0.00 | 49 | 1009.0 |
| 20260503233540 | 8 | 0 | 0.0 | 4.8 | 0.00 | 0.00 | 0.00 | 47 | 1008.9 |
| 20260503233047 | 8 | 292 | 0.0 | 4.8 | 0.00 | 0.00 | 0.00 | 45 | 1008.9 |
| 20260503232538 | 9 | 0 | 0.0 | 4.8 | 0.00 | 0.00 | 0.00 | 44 | 1008.9 |
| 20260503232038 | 9 | 0 | 0.0 | 4.8 | 0.00 | 0.00 | 0.00 | 45 | 1008.9 |
| 20260503231548 | 9 | 325 | 0.0 | 6.4 | 0.00 | 0.00 | 0.00 | 43 | 1008.8 |
| 20260503231038 | 9 | 312 | 1.6 | 6.4 | 0.00 | 0.00 | 0.00 | 43 | 1008.7 |
| 20260503230540 | 10 | 270 | 1.6 | 6.4 | 0.00 | 0.00 | 0.00 | 43 | 1008.7 |
| 20260503230053 | 10 | 350 | 1.6 | 8.0 | 0.00 | 0.00 | 0.00 | 42 | 1008.7 |
| 20260503225540 | 10 | 317 | 0.0 | 8.0 | 0.00 | 0.03 | 0.00 | 42 | 1008.6 |
| 20260503225039 | 10 | 294 | 1.6 | 8.0 | 0.00 | 0.03 | 0.00 | 43 | 1008.6 |
| 20260503224552 | 10 | 264 | 1.6 | 4.8 | 0.00 | 0.03 | 0.00 | 42 | 1008.5 |
| 20260503224039 | 10 | 0 | 0.0 | 4.8 | 0.00 | 0.03 | 0.00 | 44 | 1008.6 |
| 20260503223539 | 10 | 231 | 0.0 | 4.8 | 0.00 | 0.03 | 0.00 | 43 | 1008.5 |
| 20260503223051 | 10 | 300 | 0.0 | 4.8 | 0.00 | 0.03 | 0.00 | 44 | 1008.5 |
| 20260503222538 | 10 | 297 | 0.0 | 9.7 | 0.00 | 0.03 | 0.00 | 43 | 1008.5 |
| 20260503222042 | 10 | 263 | 0.0 | 11.3 | 0.00 | 0.03 | 0.00 | 44 | 1008.5 |
| 20260503221556 | 10 | 0 | 0.0 | 11.3 | 0.00 | 0.03 | 0.00 | 43 | 1008.5 |
| 20260503221039 | 10 | 299 | 4.8 | 14.5 | 0.00 | 0.03 | 0.00 | 41 | 1008.3 |
| 20260503220539 | 10 | 288 | 3.2 | 14.5 | 0.00 | 0.03 | 0.00 | 42 | 1008.2 |
| 20260503220053 | 10 | 265 | 4.8 | 14.5 | 0.00 | 0.03 | 0.00 | 42 | 1008.4 |
| 20260503215539 | 10 | 306 | 1.6 | 11.3 | 0.00 | 0.03 | 0.00 | 42 | 1008.2 |
| 20260503215039 | 10 | 281 | 1.6 | 11.3 | 0.00 | 0.03 | 0.00 | 42 | 1008.1 |
| 20260503214545 | 10 | 314 | 3.2 | 11.3 | 0.00 | 0.03 | 0.00 | 42 | 1008.2 |